Погода в Репино

Россия / Санкт-Петербург и Ленинградская область     60°09′43″N   29°52′27″E
темп.,
°C
ветер,
м/с
пор.,
м/с
влажн.,
%
обл.,
%
осадки,
мм/ч
давл.,
гПа
погр.,
м
29 ноября, пн
пн2900:00−4всв4989100 0.1 1009812
03:00−4в4981100 0.2 1009789
06:00−4всв51077100 0.0 1008804
09:00−4в61174100 0.0 1009860
12:00−4всв61274100 0.0 1007761
15:00−4всв71375100 0.0 1004716
18:00−4всв71488100 0.2 1001669
21:00−4св71589100 0.8 996699
30 ноября, вт
вт3000:00−4св81492100 2.9 991783
03:00−4св71393100 7.0 986682
06:00−3св61294100 4.8 982588
09:00−3ссв61195100 7.9 979604
12:00−3с61194100 1.3 977656
15:00−5ссз61293100 1.8 976522
18:00−6сз51093100 0.8 976428
21:00−6сз51093100 1.2 976639
1 декабря, ср
ср100:00−6сз51092100 0.3 977726
03:00−5зсз5109299 0.6 978730
06:00−6зсз61191100 0.3 980609
09:00−6зсз6119099 0.4 982617
12:00−7зсз61089100 0.1 984684
15:00−7зсз5989100 0.2 986680
18:00−8зсз5118711 0.0 987477
21:00−9зсз38898 0.0 988279
2 декабря, чт
чт200:00−11сз369231 0.0 989175
03:00−12ссз349346 0.0 990125
06:00−13с229464 0.0 99176
09:00−12вюв229650 0.0 99360
12:00−9вюв2591100 0.0 993139
15:00−8в3789100 0.0 992169
18:00−7в41185100 0.0 992312
21:00−6всв51182100 0.0 991389
3 декабря, пт
пт300:00−4всв51191100 0.0 990630
03:00−3всв51192100 0.4 990780
06:00−3св41092100 0.3 990709
09:00−3св5109195 0.4 991687
12:00−3св41091100 0.2 992838
15:00−3ссв4995100 0.8 992828
18:00−4с51193100 1.1 992756
21:00−4с51091100 1.4 994684